Time,TemperatureF,DewpointF,PressureIn,WindDirection,WindDirectionDegrees,WindSpeedMPH,WindSpeedGustMPH,Humidity,HourlyPrecipIn,Conditions,Clouds,dailyrainin,SoftwareType,DateUTC
2013-06-28 00:00:00,73.3,71.0,29.64,West,259,0.0,4.0,93,0.00,,,0.11,weatherlink.com 1.10,2013-06-28 04:00:00,
2013-06-28 00:15:00,73.1,71.0,29.64,West,264,1.0,2.0,93,0.00,,,0.00,weatherlink.com 1.10,2013-06-28 04:15:00,
2013-06-28 00:30:00,72.9,71.0,29.63,West,281,0.0,2.0,93,0.00,,,0.00,weatherlink.com 1.10,2013-06-28 04:30:00,
2013-06-28 00:45:00,72.6,71.0,29.63,West,278,0.0,1.0,94,0.00,,,0.00,weatherlink.com 1.10,2013-06-28 04:45:00,
2013-06-28 01:00:00,72.4,71.0,29.63,West,281,0.0,4.0,94,0.00,,,0.00,weatherlink.com 1.10,2013-06-28 05:00:00,
2013-06-28 01:15:00,72.3,71.0,29.62,SW,226,2.0,4.0,94,0.00,,,0.00,weatherlink.com 1.10,2013-06-28 05:15:00,
2013-06-28 01:30:00,72.5,71.0,29.62,WNW,285,1.0,4.0,94,0.00,,,0.00,weatherlink.com 1.10,2013-06-28 05:30:00,
2013-06-28 01:45:00,72.7,71.0,29.61,West,260,1.0,5.0,94,0.00,,,0.00,weatherlink.com 1.10,2013-06-28 05:45:00,
2013-06-28 02:00:00,72.8,71.0,29.61,West,270,1.0,5.0,94,0.00,,,0.00,weatherlink.com 1.10,2013-06-28 06:00:00,
2013-06-28 02:16:00,72.9,71.0,29.60,WSW,249,2.0,5.0,94,0.00,,,0.00,weatherlink.com 1.10,2013-06-28 06:16:00,
2013-06-28 02:31:00,72.9,71.0,29.59,West,273,0.0,5.0,94,0.00,,,0.00,weatherlink.com 1.10,2013-06-28 06:31:00,
2013-06-28 02:46:00,73.0,71.0,29.59,West,268,3.0,8.0,94,0.00,,,0.00,weatherlink.com 1.10,2013-06-28 06:46:00,
2013-06-28 03:01:00,73.2,71.0,29.59,West,269,3.0,6.0,94,0.00,,,0.00,weatherlink.com 1.10,2013-06-28 07:01:00,
2013-06-28 03:16:00,73.1,71.0,29.59,WNW,291,5.0,6.0,93,0.00,,,0.00,weatherlink.com 1.10,2013-06-28 07:16:00,
2013-06-28 03:31:00,72.9,71.0,29.59,WSW,242,3.0,6.0,94,0.00,,,0.00,weatherlink.com 1.10,2013-06-28 07:31:00,
2013-06-28 03:46:00,72.8,71.0,29.58,West,281,0.0,6.0,94,0.00,,,0.00,weatherlink.com 1.10,2013-06-28 07:46:00,
2013-06-28 04:01:00,72.7,71.0,29.59,SW,235,3.0,5.0,94,0.00,,,0.00,weatherlink.com 1.10,2013-06-28 08:01:00,
2013-06-28 04:16:00,72.7,71.0,29.58,WSW,242,3.0,5.0,94,0.00,,,0.00,weatherlink.com 1.10,2013-06-28 08:16:00,
2013-06-28 04:31:00,72.6,71.0,29.59,WNW,293,2.0,5.0,94,0.00,,,0.00,weatherlink.com 1.10,2013-06-28 08:31:00,
2013-06-28 04:46:00,72.6,71.0,29.59,West,267,4.0,5.0,94,0.00,,,0.00,weatherlink.com 1.10,2013-06-28 08:46:00,
2013-06-28 05:01:00,72.5,71.0,29.59,SW,235,2.0,4.0,94,0.00,,,0.00,weatherlink.com 1.10,2013-06-28 09:01:00,
2013-06-28 05:16:00,72.5,70.0,29.59,WSW,246,2.0,3.0,93,0.00,,,0.00,weatherlink.com 1.10,2013-06-28 09:16:00,
2013-06-28 05:31:00,72.3,70.0,29.59,WSW,257,1.0,3.0,93,0.00,,,0.00,weatherlink.com 1.10,2013-06-28 09:31:00,
2013-06-28 05:46:00,72.4,70.0,29.59,West,280,0.0,3.0,93,0.00,,,0.00,weatherlink.com 1.10,2013-06-28 09:46:00,
2013-06-28 06:01:00,72.3,70.0,29.59,SW,230,0.0,2.0,93,0.00,,,0.00,weatherlink.com 1.10,2013-06-28 10:01:00,
2013-06-28 06:16:00,72.8,71.0,29.59,WSW,242,0.0,3.0,93,0.00,,,0.00,weatherlink.com 1.10,2013-06-28 10:16:00,
2013-06-28 06:31:00,72.9,71.0,29.60,West,259,1.0,2.0,92,0.00,,,0.00,weatherlink.com 1.10,2013-06-28 10:31:00,
2013-06-28 06:46:00,73.3,71.0,29.61,WSW,255,3.0,4.0,92,0.00,,,0.00,weatherlink.com 1.10,2013-06-28 10:46:00,
2013-06-28 07:01:00,74.5,72.0,29.61,West,261,1.0,3.0,91,0.00,,,0.00,weatherlink.com 1.10,2013-06-28 11:01:00,
2013-06-28 07:16:00,74.4,71.0,29.61,WSW,238,1.0,5.0,90,0.00,,,0.00,weatherlink.com 1.10,2013-06-28 11:16:00,
2013-06-28 07:31:00,74.1,71.0,29.61,SW,229,2.0,5.0,90,0.00,,,0.00,weatherlink.com 1.10,2013-06-28 11:31:00,
2013-06-28 07:46:00,74.2,72.0,29.60,West,259,1.0,4.0,91,0.00,,,0.00,weatherlink.com 1.10,2013-06-28 11:46:00,
2013-06-28 08:01:00,74.4,71.0,29.60,West,274,3.0,6.0,90,0.00,,,0.00,weatherlink.com 1.10,2013-06-28 12:01:00,
2013-06-28 08:16:00,74.9,72.0,29.60,WNW,294,2.0,6.0,89,0.00,,,0.00,weatherlink.com 1.10,2013-06-28 12:16:00,
2013-06-28 08:31:00,75.9,72.0,29.60,West,278,1.0,6.0,87,0.00,,,0.00,weatherlink.com 1.10,2013-06-28 12:31:00,
2013-06-28 08:46:00,76.4,72.0,29.60,West,259,2.0,6.0,86,0.00,,,0.00,weatherlink.com 1.10,2013-06-28 12:46:00,
2013-06-28 09:01:00,76.9,72.0,29.60,WSW,246,3.0,8.0,85,0.00,,,0.00,weatherlink.com 1.10,2013-06-28 13:01:00,
2013-06-28 09:16:00,77.2,73.0,29.59,WNW,295,1.0,5.0,86,0.00,,,0.00,weatherlink.com 1.10,2013-06-28 13:16:00,
2013-06-28 09:31:00,77.7,72.0,29.59,SW,221,4.0,5.0,83,0.00,,,0.00,weatherlink.com 1.10,2013-06-28 13:31:00,
2013-06-28 09:46:00,78.4,73.0,29.58,West,279,2.0,5.0,82,0.00,,,0.00,weatherlink.com 1.10,2013-06-28 13:46:00,
2013-06-28 10:01:00,79.8,73.0,29.58,SW,231,4.0,7.0,79,0.00,,,0.00,weatherlink.com 1.10,2013-06-28 14:01:00,
2013-06-28 10:17:00,80.7,73.0,29.58,West,264,3.0,6.0,77,0.00,,,0.00,weatherlink.com 1.10,2013-06-28 14:17:00,
2013-06-28 10:32:00,80.9,72.0,29.58,WNW,297,4.0,7.0,75,0.00,,,0.00,weatherlink.com 1.10,2013-06-28 14:32:00,
2013-06-28 10:47:00,81.6,73.0,29.59,West,259,3.0,7.0,74,0.00,,,0.00,weatherlink.com 1.10,2013-06-28 14:47:00,
2013-06-28 11:02:00,82.3,73.0,29.58,SW,228,4.0,7.0,73,0.00,,,0.00,weatherlink.com 1.10,2013-06-28 15:02:00,
2013-06-28 11:17:00,82.5,72.0,29.59,West,265,5.0,7.0,71,0.00,,,0.00,weatherlink.com 1.10,2013-06-28 15:17:00,
2013-06-28 11:32:00,83.2,72.0,29.59,NW,305,2.0,6.0,68,0.00,,,0.00,weatherlink.com 1.10,2013-06-28 15:32:00,
2013-06-28 11:47:00,83.1,72.0,29.59,West,264,4.0,10.0,69,0.00,,,0.00,weatherlink.com 1.10,2013-06-28 15:47:00,
2013-06-28 12:02:00,82.3,72.0,29.59,NW,309,3.0,7.0,71,0.00,,,0.00,weatherlink.com 1.10,2013-06-28 16:02:00,
2013-06-28 12:17:00,82.6,73.0,29.59,WNW,292,2.0,3.0,72,0.00,,,0.00,weatherlink.com 1.10,2013-06-28 16:17:00,
2013-06-28 12:32:00,83.8,73.0,29.58,NW,306,1.0,6.0,70,0.00,,,0.00,weatherlink.com 1.10,2013-06-28 16:32:00,
2013-06-28 12:47:00,84.6,72.0,29.58,West,267,7.0,8.0,66,0.00,,,0.00,weatherlink.com 1.10,2013-06-28 16:47:00,
2013-06-28 13:02:00,84.8,72.0,29.57,WSW,245,3.0,9.0,66,0.00,,,0.00,weatherlink.com 1.10,2013-06-28 17:02:00,
2013-06-28 13:17:00,85.1,72.0,29.57,WSW,252,5.0,10.0,64,0.00,,,0.00,weatherlink.com 1.10,2013-06-28 17:17:00,
2013-06-28 13:32:00,85.1,72.0,29.56,WSW,242,2.0,9.0,66,0.00,,,0.00,weatherlink.com 1.10,2013-06-28 17:32:00,
2013-06-28 13:47:00,85.6,71.0,29.55,WNW,284,4.0,8.0,62,0.00,,,0.00,weatherlink.com 1.10,2013-06-28 17:47:00,
2013-06-28 14:02:00,86.0,72.0,29.55,WSW,253,7.0,11.0,64,0.00,,,0.00,weatherlink.com 1.10,2013-06-28 18:02:00,
2013-06-28 14:17:00,85.8,73.0,29.55,West,268,9.0,11.0,65,0.00,,,0.00,weatherlink.com 1.10,2013-06-28 18:17:00,
2013-06-28 14:32:00,86.2,72.0,29.54,South,188,5.0,11.0,62,0.00,,,0.00,weatherlink.com 1.10,2013-06-28 18:32:00,
2013-06-28 14:47:00,85.7,74.0,29.53,SSW,205,11.0,15.0,69,0.00,,,0.00,weatherlink.com 1.10,2013-06-28 18:47:00,
2013-06-28 15:02:00,85.1,74.0,29.52,SSW,198,12.0,16.0,69,0.00,,,0.00,weatherlink.com 1.10,2013-06-28 19:02:00,
2013-06-28 15:17:00,84.5,75.0,29.51,SSE,168,9.0,17.0,73,0.00,,,0.00,weatherlink.com 1.10,2013-06-28 19:17:00,
2013-06-28 15:32:00,83.6,75.0,29.51,SSW,207,7.0,15.0,74,0.00,,,0.00,weatherlink.com 1.10,2013-06-28 19:32:00,
2013-06-28 15:47:00,82.5,75.0,29.50,SSW,193,10.0,15.0,77,0.00,,,0.00,weatherlink.com 1.10,2013-06-28 19:47:00,
2013-06-28 16:02:00,81.9,75.0,29.52,SSW,210,7.0,14.0,80,0.00,,,0.00,weatherlink.com 1.10,2013-06-28 20:02:00,
2013-06-28 16:17:00,81.5,75.0,29.51,SSW,203,3.0,10.0,81,0.00,,,0.00,weatherlink.com 1.10,2013-06-28 20:17:00,
2013-06-28 16:32:00,81.2,75.0,29.52,West,281,2.0,4.0,82,0.01,,,0.01,weatherlink.com 1.10,2013-06-28 20:32:00,
2013-06-28 16:47:00,73.9,69.0,29.58,NW,305,7.0,22.0,83,0.06,,,0.06,weatherlink.com 1.10,2013-06-28 20:47:00,
2013-06-28 17:03:00,70.6,69.0,29.52,SSE,165,12.0,21.0,94,0.06,,,0.06,weatherlink.com 1.10,2013-06-28 21:03:00,
2013-06-28 17:18:00,72.4,71.0,29.51,SW,236,5.0,8.0,94,0.06,,,0.06,weatherlink.com 1.10,2013-06-28 21:18:00,
2013-06-28 17:33:00,72.9,71.0,29.53,West,268,3.0,7.0,94,0.05,,,0.06,weatherlink.com 1.10,2013-06-28 21:33:00,
2013-06-28 17:48:00,72.5,71.0,29.52,NNE,30,9.0,9.0,94,0.00,,,0.06,weatherlink.com 1.10,2013-06-28 21:48:00,
2013-06-28 18:03:00,73.6,71.0,29.51,East,82,7.0,8.0,91,0.00,,,0.06,weatherlink.com 1.10,2013-06-28 22:03:00,
2013-06-28 18:18:00,74.8,71.0,29.51,NNE,23,9.0,10.0,87,0.00,,,0.06,weatherlink.com 1.10,2013-06-28 22:18:00,
2013-06-28 18:33:00,73.5,70.0,29.52,NNE,16,10.0,16.0,88,0.00,,,0.06,weatherlink.com 1.10,2013-06-28 22:33:00,
2013-06-28 18:48:00,71.2,69.0,29.53,East,86,4.0,9.0,91,0.00,,,0.06,weatherlink.com 1.10,2013-06-28 22:48:00,
2013-06-28 19:03:00,71.6,69.0,29.56,NW,305,2.0,9.0,92,0.00,,,0.06,weatherlink.com 1.10,2013-06-28 23:03:00,
2013-06-28 19:18:00,71.0,69.0,29.56,SSE,150,4.0,9.0,94,0.00,,,0.06,weatherlink.com 1.10,2013-06-28 23:18:00,
2013-06-28 19:33:00,70.8,69.0,29.57,SW,217,3.0,8.0,94,0.00,,,0.06,weatherlink.com 1.10,2013-06-28 23:33:00,
2013-06-28 19:48:00,70.7,69.0,29.57,WSW,249,2.0,5.0,95,0.00,,,0.06,weatherlink.com 1.10,2013-06-28 23:48:00,
2013-06-28 20:03:00,70.6,69.0,29.55,South,191,3.0,5.0,95,0.00,,,0.06,weatherlink.com 1.10,2013-06-29 00:03:00,
2013-06-28 20:18:00,70.6,70.0,29.55,West,274,3.0,3.0,96,0.00,,,0.06,weatherlink.com 1.10,2013-06-29 00:18:00,
2013-06-28 20:33:00,70.5,69.0,29.54,SSW,203,6.0,11.0,95,0.00,,,0.06,weatherlink.com 1.10,2013-06-29 00:33:00,
2013-06-28 20:48:00,70.9,70.0,29.54,SSW,211,9.0,13.0,95,0.00,,,0.06,weatherlink.com 1.10,2013-06-29 00:48:00,
2013-06-28 21:03:00,71.2,69.0,29.55,SW,229,4.0,8.0,94,0.00,,,0.06,weatherlink.com 1.10,2013-06-29 01:03:00,
2013-06-28 21:18:00,71.3,70.0,29.56,SW,219,3.0,10.0,95,0.00,,,0.06,weatherlink.com 1.10,2013-06-29 01:18:00,
2013-06-28 21:33:00,71.3,70.0,29.57,SW,221,6.0,8.0,95,0.00,,,0.06,weatherlink.com 1.10,2013-06-29 01:33:00,
2013-06-28 21:48:00,71.2,70.0,29.57,SW,224,0.0,3.0,95,0.00,,,0.06,weatherlink.com 1.10,2013-06-29 01:48:00,
2013-06-28 22:03:00,71.2,70.0,29.58,West,274,3.0,3.0,95,0.00,,,0.06,weatherlink.com 1.10,2013-06-29 02:03:00,
2013-06-28 22:18:00,71.1,70.0,29.57,West,278,1.0,3.0,96,0.00,,,0.06,weatherlink.com 1.10,2013-06-29 02:18:00,
2013-06-28 22:33:00,71.3,70.0,29.57,WSW,255,1.0,2.0,96,0.00,,,0.06,weatherlink.com 1.10,2013-06-29 02:33:00,
2013-06-28 22:48:00,71.2,70.0,29.57,SW,236,1.0,2.0,96,0.00,,,0.06,weatherlink.com 1.10,2013-06-29 02:48:00,
2013-06-28 23:03:00,71.0,70.0,29.57,SSW,212,1.0,2.0,96,0.00,,,0.06,weatherlink.com 1.10,2013-06-29 03:03:00,
2013-06-28 23:18:00,71.2,70.0,29.57,West,259,1.0,6.0,96,0.00,,,0.06,weatherlink.com 1.10,2013-06-29 03:18:00,
2013-06-28 23:33:00,71.0,70.0,29.58,West,278,2.0,4.0,96,0.00,,,0.06,weatherlink.com 1.10,2013-06-29 03:33:00,
2013-06-28 23:48:00,70.9,70.0,29.58,West,269,1.0,2.0,96,0.00,,,0.06,weatherlink.com 1.10,2013-06-29 03:48:00,